SL-8 R/B (11574 NORAD) Tracking and Keplerian Element Data

This shows tracking and keplerian element data for the satellite.

Feedback or suggestion? Click here.




ElementValue
Catalog11574
NameSL-8 R/B
Epoch Orbit21798
Epoch Day15.91891781
Epoch Year2022
RAAN9.185
Inclination74.0702
Eccentricity0.0016665
Argument of Perigee211.778
Mean Anonmoly148.2372
Mean Motion14.40842444
Decay Rate1.2E-07
L11 11574U 79089B 22015.91891781 .00000012 00000+0 11927-4 0 9991
L22 11574 74.0702 9.1850 0016665 211.7780 148.2372 14.40842444217982

Live tracking and technical data element details for SL-8 R/B (NORAD 11574). SL-8 R/B can be tracked NOW for your location showing map with azimuth and elevation plus other details from your city location.

Track the satellite on the map from your city or location and see movement details for azimuth, elevation, latitude, longitude, range, height, and movement on the map or in text.







IsCatalogInMostPopularTable: catalog: 11574, numindb: 237
Update: records affected: 1



GetName: 11574 SL-8 R/B

Hit Count: updated at: Mon, 17 Jan 2022 01:13:46 GMT